User: anonymous   Login
Location: Unspecified
(0.0000°N, 0.0000°E)
Time: 09:25:31
(UTC+00:00)
Language:

LIBERTAD 1 - Orbit

View from above orbital plane
View from above orbital plane
View from above satellite
View from above satellite

Ground track
Ground track

The orbit data is extracted from the following two-line orbital elements,

1 31128U 07012M   19345.82893696 +.00000040 +00000-0 +19348-4 0  9991
2 31128 098.1805 281.5826 0095194 264.6441 094.3891 14.56141213671506
Epoch (UTC): 11 December 2019 19:53:40
Eccentricity: 0.0095194
inclination: 98.1805°
perigee height: 638 km
apogee height: 773 km
right ascension of ascending node: 281.5826°
argument of perigee: 264.6441°
revolutions per day: 14.56141213
mean anomaly at epoch: 94.3891°
orbit number at epoch: 67150

The dashed part of the orbit path shows where the satellite is in the earth's shadow,  

DLR